Regional Weather Roundup
Issued by NWS

Home | Current Version | Previous Version | Text Only | Print | Product List | Glossary Off
Versions: 1 2 3 4 5 6 7 8 9 10 11 12 13 14 15 16 17 18 19 20 21 22 23 24 25 26 27 28 29 30 31 32 33 34 35 36 37 38 39 40 41 42 43 44 45 46 47 48 49 50

000
ASUS43 KDTX 191101
RWRMI
MICHIGAN HOURLY REGIONAL WEATHER ROUNDUP
NATIONAL WEATHER SERVICE DETROIT/PONTIAC MI
700 AM EDT THU APR 19 2018

NOTE: "FAIR" INDICATES FEW OR NO CLOUDS BELOW 12,000 FEET WITH NO
SIGNIFICANT WEATHER AND/OR OBSTRUCTION TO VISIBILITY.

MIZ047>049-052>055-059>063-066>070-074>076-081>083-191200-
SOUTHEAST LOWER MICHIGAN

CITY           SKY/WX    TMP DP  RH WIND       PRES   REMARKS
ADRIAN         CLOUDY    33  29  85 N9        30.01R WCI  25
ANN ARBOR      MOCLDY    32  28  85 W7        29.98R WCI  26
BAD AXE        FAIR      34  23  62 N17G28    29.97R WCI  24
CARO           FAIR      32  24  71 N10       29.99R WCI  23
DETROIT CITY     N/A    N/A N/A N/A MISG      29.97R
DETROIT        CLOUDY    35  26  69 NW9       29.98R WCI  28
FLINT          FAIR      30  26  85 NW7       30.00R WCI  23
GROSSE ILE     CLOUDY    35  28  75 NW9       29.96R WCI  28
HILLSDALE      FAIR      32  28  86 NW8       30.00R WCI  25
HOWELL         FAIR      31  28  91 NW6       30.00R WCI  25

CITY           SKY/WX    TMP DP  RH WIND       PRES   REMARKS
JACKSON        FAIR      32  28  85 W6        30.02R WCI  26
LAMBERTVILLE   CLOUDY    34  31  87 NW5       29.99R WCI  30
LANSING        FAIR      30  27  88 NW8       30.04R WCI  22
LAPEER         FAIR      31  24  76 NW5       29.98R WCI  26
MASON          FAIR      32  26  78 NW8       30.02R WCI  25
MONROE         CLOUDY    34  28  78 NW7       29.98R WCI  28
PONTIAC        MOCLDY    34  26  72 NW12      29.96R WCI  25
PORT HOPE        N/A     33  26  75 N14G29    29.95R WCI  23
PORT HURON     CLOUDY    34  25  69 N10       29.95R WCI  26
TRI CITIES     FAIR      32  23  69 N9        30.02R WCI  24
MIDLAND        NOT AVBL
TROY           CLOUDY    36  26  68 NW10G16   29.99R WCI  28
SAGINAW HB     FAIR      30  27  86 NW7       30.01R WCI  23
$$
MIZ043>046-050>051-056>058-064>065-071>073-077>080-191200-
SOUTHWEST LOWER MICHIGAN

CITY           SKY/WX    TMP DP  RH WIND       PRES   REMARKS
BATTLE CREEK   FAIR      32  28  85 NW8       30.05R WCI  25
BENTON HARBOR  FAIR      36  30  79 VRB6      30.10R WCI  31
BIG RAPIDS     FAIR      31  20  63 N7        30.06R WCI  25
COLDWATER      FAIR      32  31  97 NW6       30.04R WCI  26
FREMONT        FAIR      25  21  85 NW3       30.10R
HOLLAND        FAIR      33  29  85 NW5       30.09R WCI  29
GRAND RAPIDS   FAIR      31  27  85 NW8       30.07R WCI  23
IONIA          FAIR      30  27  88 NW9       30.05R WCI  22
KALAMAZOO      FAIR      32  29  88 NW9       30.06R WCI  24
LUDINGTON      FAIR      33  25  71 N8        30.12R WCI  26
MARSHALL       FAIR      31  29  93 NW3       30.03R
MOUNT PLEASANT FAIR      33  23  65 NW6       30.03R WCI  28
MUSKEGON       FAIR      31  25  78 NW5       30.11R WCI  26
SOUTH HAVEN    FAIR      34  31  88 N5        30.10R WCI  30
$$
MIZ016>042-191200-
NORTHERN LOWER MICHIGAN

CITY           SKY/WX    TMP DP  RH WIND       PRES   REMARKS
ALPENA         FAIR      29  21  72 N12       30.03R WCI  19
BEAVER ISLAND  FAIR      32  24  71 N13       30.13R WCI  22
BELLAIRE       FAIR      31  22  69 N6        30.11R WCI  25
CADILLAC       FAIR      28  22  77 N10       30.06R WCI  19
CHARLEVOIX     FAIR      32  24  73 N13G22    30.14R WCI  22
FRANKFORT      FAIR      35  25  67 N7        30.14R WCI  29
GAYLORD        FAIR      27  19  72 VRB5      30.04R WCI  22
GRAYLING       FAIR      28  19  70 N9        30.04R WCI  19
HARBOR SPRINGS FAIR      30  20  68 NW5       30.09R WCI  25
HOUGHTON LAKE  FAIR      29  18  63 N8        30.03R WCI  21
MANISTEE       FAIR      33  22  63 N10       30.12R WCI  25
OSCODA         FAIR      31  19  61 N12       29.99R WCI  22
PELLSTON       FAIR      29  20  69 NW12      30.10R WCI  19
ROGERS CITY    FAIR      31  21  66 N12G22    30.06R WCI  22
TRAVERSE CITY  FAIR      34  23  64 N10G16    30.11R WCI  26
$$
MIZ007>008-015-191200-
EASTERN UPPER MICHIGAN

CITY           SKY/WX    TMP DP  RH WIND       PRES   REMARKS
KINROSS        FAIR      26  18  71 N13       30.08R WCI  15
MACKINAC ISLAN FAIR      29  20  70 N14G21    30.08R WCI  18
NEWBERRY       FAIR      27  23  83 N8        30.12R WCI  19
S. S. MARIE    FAIR      28  17  63 N5        30.09R WCI  23
MUNISING         N/A     29  25  85 NW12      30.20R WCI  19
$$
MIZ004>006-011>014-085-191200-
CENTRAL UPPER MICHIGAN

CITY           SKY/WX    TMP DP  RH WIND       PRES   REMARKS
MANISTIQUE     FAIR      28  24  85 NW9       30.15R WCI  19
ESCANABA       FAIR      31  24  75 N12G17    30.19R WCI  22
MENOMINEE      FAIR      30  20  66 NW6       30.21R WCI  24
SAWYER-GWINN   CLEAR     25  19  80 N9        30.20R WCI  15
$$
MIZ001>003-009>011-084-191200-
WESTERN UPPER MICHIGAN

CITY           SKY/WX    TMP DP  RH WIND       PRES   REMARKS
IRON MOUNTAIN  FAIR      27  18  69 NW10      30.20R WCI  17
HOUGHTON       FAIR      27  20  75 N10       30.25R WCI  17
COPPER HARBOR    N/A     30  25  81 N10       30.26R WCI  21
IRONWOOD       FAIR      13  12  96 CALM      30.31R
$$

ABBREVIATIONS USED IN REMARKS
   TC - TEMPERATURE IN CELSIUS
  WCI - WIND CHILL INDEX
   HX - HEAT INDEX
  VSB - VISIBILITY





USA.gov is the U.S. government's official web portal to all federal, state and local government web resources and services.